Location: �chemir�
(47.5500°N, 0.1667°W)
Time: 16:34:50
(UTC+02:00)

ISS - Pass Details

Date: 18 May 2021
Orbit: 419 x 422 km, 51.6° (Epoch: 25 June)

Event Time Altitude Azimuth Distance (km) Brightness Sun altitude
Rises 02:43:45 0° 293° (WNW) 2,375 0.2 -22.1°
Reaches altitude 10° 02:45:52 10° 296° (WNW) 1,509 -0.8 -22.0°
Enters shadow 02:47:45 30° 302° (WNW) 777 -2.3 -21.9°
